EW9975 Weather Reports


Display with metric or nautical units.
time (UTC)temp
F
wind
direction
speed
MPH
gust
MPH
rain 1hr
in
rain 24hr
in
rain mn
in
humidity
%
barometer
mb
20260505123030 57 40 2.0 4.0 0.01 0.02 0.02 94 1014.0
20260505121536 57 304 1.0 9.0 0.01 0.02 0.02 94 1014.2
20260505120030 57 281 9.0 11.0 0.00 0.01 0.01 94 1014.3
20260505114528 56 246 11.0 18.0 0.00 0.01 0.01 93 1014.2
20260505113037 58 265 0.0 2.0 0.00 0.01 0.01 93 1013.9
20260505111538 57 265 1.0 2.0 0.00 0.01 0.01 93 1014.0
20260505101529 58 247 12.0 18.0 0.01 0.01 0.01 94 1014.1
20260505100018 59 236 11.0 13.0 0.00 0.00 0.00 92 1014.1
20260505094517 58 228 8.0 10.0 0.00 0.00 0.00 92 1014.2
20260505093015 58 232 7.0 12.0 0.00 0.00 0.00 92 1014.3
20260505091514 59 227 11.0 14.0 0.00 0.00 0.00 92 1014.4
20260505090012 58 229 12.0 18.0 0.00 0.00 0.00 91 1014.6
20260505084524 58 198 5.0 8.0 0.00 0.00 0.00 90 1014.7
20260505083005 59 239 10.0 12.0 0.00 0.00 0.00 89 1014.8
20260505081502 60 263 10.0 12.0 0.00 0.00 0.00 88 1014.7
20260505080059 61 200 7.0 10.0 0.00 0.00 0.00 86 1014.8
20260505074558 61 202 9.0 11.0 0.00 0.00 0.00 86 1015.0
20260505073057 61 227 7.0 10.0 0.00 0.00 0.00 88 1015.0
20260505071558 61 227 6.0 9.0 0.00 0.00 0.00 87 1015.2
20260505064555 60 223 6.0 9.0 0.00 0.00 0.00 88 1015.2
20260505063048 60 199 7.0 11.0 0.00 0.00 0.00 89 1015.2
20260505061610 60 258 8.0 12.0 0.00 0.00 0.00 89 1015.3
20260505060052 60 265 10.0 15.0 0.00 0.00 0.00 88 1015.5
20260505054549 61 263 8.0 11.0 0.00 0.00 0.00 88 1015.5
20260505053045 61 275 9.0 13.0 0.00 0.00 0.00 88 1015.7
20260505051544 61 264 11.0 15.0 0.00 0.00 0.00 88 1015.9
20260505041541 62 234 15.0 18.0 0.00 0.00 0.00 85 1015.8
20260505040056 63 234 14.0 18.0 0.00 0.00 0.00 84 1015.7
20260505034543 62 227 11.0 14.0 0.00 0.00 0.00 81 1015.6
20260505033039 63 226 11.0 14.0 0.00 0.00 0.00 81 1015.6
20260505031547 62 214 8.0 11.0 0.00 0.00 0.00 80 1015.5
20260505030042 62 231 11.0 14.0 0.00 0.00 0.00 80 1015.5
20260505024538 62 238 7.0 11.0 0.00 0.00 0.00 82 1015.3
20260505023036 62 230 8.0 12.0 0.00 0.00 0.00 82 1015.4
20260505021537 62 215 8.0 12.0 0.00 0.00 0.00 83 1015.5
20260505020040 62 219 11.0 16.0 0.00 0.00 0.00 83 1015.5
20260505014541 62 233 12.0 16.0 0.00 0.00 0.00 82 1015.3
20260505013034 62 215 11.0 16.0 0.00 0.00 0.00 83 1015.7
20260505011537 62 215 11.0 16.0 0.00 0.00 0.00 82 1015.6
20260505010034 62 221 12.0 16.0 0.00 0.00 0.00 82 1015.7
20260505004533 62 217 11.0 15.0 0.00 0.00 0.00 83 1015.9
20260505003029 62 215 11.0 15.0 0.00 0.00 0.00 82 1015.8
20260505001526 62 218 12.0 15.0 0.00 0.00 0.00 82 1016.0
20260505000038 62 216 11.0 15.0 0.00 0.00 0.00 82 1016.1
20260504234517 63 225 11.0 15.0 0.00 0.00 0.00 81 1016.0
20260504233016 62 233 12.0 14.0 0.00 0.00 0.00 79 1016.0
20260504231515 62 232 13.0 16.0 0.00 0.00 0.00 78 1015.9
20260504230015 62 227 11.0 14.0 0.00 0.00 0.00 78 1016.0
20260504224517 62 232 11.0 15.0 0.00 0.00 0.00 79 1015.8
20260504223012 62 238 12.0 15.0 0.00 0.00 0.00 78 1016.0
20260504221511 62 232 12.0 16.0 0.00 0.00 0.00 79 1016.2
20260504220029 62 238 11.0 15.0 0.00 0.00 0.00 82 1016.6
20260504214512 62 232 11.0 14.0 0.00 0.00 0.00 82 1016.6
20260504213011 62 244 12.0 15.0 0.00 0.00 0.00 82 1016.9
20260504211508 62 247 11.0 16.0 0.00 0.00 0.00 81 1016.9
20260504210008 62 262 11.0 15.0 0.00 0.00 0.00 80 1017.0
20260504204507 62 259 12.0 15.0 0.00 0.00 0.00 80 1016.9
20260504203006 62 253 12.0 14.0 0.00 0.00 0.00 78 1016.8
20260504201504 61 243 12.0 15.0 0.00 0.00 0.00 79 1016.8
20260504200006 62 246 10.0 13.0 0.00 0.00 0.00 81 1017.0
20260504194503 61 240 9.0 14.0 0.00 0.00 0.00 81 1016.9
20260504193002 62 262 10.0 13.0 0.00 0.00 0.00 82 1017.2
20260504191501 62 236 9.0 11.0 0.00 0.00 0.00 80 1017.3
20260504190108 61 252 9.0 12.0 0.00 0.00 0.00 80 1017.1
20260504184558 61 254 9.0 12.0 0.00 0.00 0.00 80 1017.4
20260504183102 61 248 11.0 13.0 0.00 0.00 0.00 81 1017.3
20260504181555 61 254 9.0 12.0 0.00 0.00 0.00 81 1017.2
20260504180132 61 248 9.0 12.0 0.00 0.00 0.00 80 1017.2
20260504174553 61 260 7.0 12.0 0.00 0.00 0.00 81 1017.1
20260504173052 61 251 11.0 13.0 0.00 0.00 0.00 81 1017.1
20260504171551 61 236 7.0 11.0 0.00 0.00 0.00 81 1016.9